Location: Newark
(46.1292°N, 1.0086°W)
Time: 04:11:53
(UTC+00:00)

Transit 4A - Pass Details

Date: 21 November 2019
Orbit: 870 x 975 km, 66.8° (Epoch: 05 December)

Event Time Altitude Azimuth Distance (km) Brightness Sun altitude
Exits shadow 05:37:04 - 333° (NNW) 2,625 9.9 -16.3°
Reaches altitude 10° 05:37:13 10° 333° (NNW) 2,570 9.9 -16.3°
Maximum altitude 05:43:03 55° 51° (NE) 1,050 8.4 -15.3°
Drops below altitude 10° 05:48:44 10° 129° (SE) 2,515 11.2 -14.3°
Sets 05:51:15 0° 134° (SE) 3,446 12.0 -13.9°
